Location: Blackwater Beach
(38.5801°N, 75.1577°W)
Time: 10:08:34
(UTC+00:00)

Resurs 01 Rocket - Pass Details

Date: 13 February 2026
Orbit: 627 x 635 km, 97.7° (Epoch: 11 March)

Event Time Altitude Azimuth Distance (km) Brightness Sun altitude
Rises 23:26:59 0° 147° (SSE) 2,909 4.8 -10.5°
Reaches altitude 10° 23:29:17 10° 139° (SE) 2,007 3.9 -10.9°
Maximum altitude 23:33:18 37° 72° (ENE) 986 2.1 -11.7°
Drops below altitude 10° 23:37:21 10° 5° (N) 2,025 4.1 -12.5°
Sets 23:39:41 0° 357° (N) 2,939 5.0 -12.9°
